Home > Weather > Sidon > Past weeks

Flag for Lebanon Weather for the Past 2 Weeks in Sidon, Lebanon

Now
66 °F

Scattered clouds.


Feels Like: 66 °F
Forecast: 63 / 75 °F
Wind: 6 mph from Northwest

Location: Beirut Airport

Current Time: Feb 13, 2016 at 11:44:18 AM

Latest Report: Feb 13, 2016 at 11:00 AM


Visibility: N/A

Pressure: 30.18 "Hg

Humidity: 56%

Dew point: 50 °F

Location of SidonLocation

Historic Weather in Sidon — Graph

°F

Sidon Temperature Yesterday

Maximum temperature yesterday: 64 °F (at 9:00 AM)
Minimum temperature yesterday: 55 °F (at 3:00 AM)
Average temperature yesterday: 60 °F

High & Low Weather Summary for the Past Weeks

 TemperatureHumidityPressure
High75 °F (Feb 5, 1:00 PM)88% (Feb 6, 6:00 AM)30.48 "Hg (Feb 6, 6:00 AM)
Low52 °F (Jan 30, 12:00 AM)22% (Feb 5, 1:00 PM)29.86 "Hg (Feb 7, 12:00 AM)
Average58 °F60%30.21 "Hg
* Reported Jan 29 10:00 AM — Feb 13 10:00 AM, Sidon, Weather by CustomWeather, © 2016

Note: Actual official high and low records may vary slightly from our data, if they occured in-between our weather recording intervals... More about our weather records

Advertising

Sidon Weather History for the Previous 24 Hours

 ConditionsComfort  
Time TempWeatherWind HumidityBarometerVisibility
10:00 AM
Sat, Feb 13
64 °FScattered clouds.3 mph56%30.18 "HgN/A
9:00 AM64 °FScattered clouds.No wind49%30.18 "HgN/A
8:00 AM55 °FScattered clouds.2 mph67%30.18 "HgN/A
7:00 AM55 °FSunny.5 mph67%30.18 "Hg10 mi
6:00 AM54 °FClear.2 mph72%30.18 "Hg10 mi
5:00 AM55 °FClear.2 mph67%30.18 "Hg10 mi
4:00 AM57 °FClear.3 mph63%30.18 "Hg10 mi
3:00 AM55 °FClear.2 mph72%30.21 "Hg10 mi
2:00 AM55 °FClear.2 mph72%30.21 "Hg10 mi
1:00 AM57 °FClear.2 mph67%30.24 "Hg10 mi
12:00 AM57 °FClear.2 mph72%30.24 "Hg10 mi
11:00 PM
Fri, Feb 12
59 °FClear.5 mph68%30.24 "Hg10 mi
10:00 PM59 °FClear.3 mph68%30.27 "Hg10 mi
9:00 PM59 °FClear.3 mph72%30.27 "Hg10 mi
8:00 PM61 °FPassing clouds.3 mph68%30.27 "HgN/A
7:00 PM61 °FPassing clouds.5 mph68%30.27 "HgN/A
6:00 PM61 °FPassing clouds.3 mph68%30.24 "HgN/A
5:00 PM63 °FPassing clouds.3 mph64%30.24 "HgN/A
4:00 PM64 °FPassing clouds.6 mph60%30.24 "HgN/A
3:00 PM64 °FSunny.7 mph64%30.24 "Hg5 mi
2:00 PM64 °FSunny.6 mph60%30.24 "Hg5 mi
1:00 PM64 °FSunny.7 mph60%30.27 "Hg5 mi
12:00 PM64 °FSunny.7 mph52%30.27 "Hg5 mi
11:00 AM64 °FSunny.8 mph56%30.30 "Hg5 mi
Weather by CustomWeather, © 2016

See weather overviewHow to use our weather pages